Weather Roundup
Issued by NWS Springfield, MO

Home | Current Version | Previous Version | Text Only | Print | Product List | Glossary On
Versions: 1 2 3 4 5 6 7 8 9 10 11 12 13 14 15 16 17 18 19 20 21 22 23 24 25 26 27 28 29 30 31 32 33 34 35 36 37 38 39 40 41 42 43 44 45 46 47 48 49 50
000
NZUS99 KSGF 241257
HRRSGF

HOURLY WEATHER
NATIONAL WEATHER SERVICE SPRINGFIELD MO
800 AM CDT FRI MAR 24 2017

......SGF CWA......

CITY           SKY/WX    TMP DP  RH WIND       PRES   REMARKS
SPRINGFIELD    CLOUDY    66  48  52 S18G25    29.89F
JOPLIN         CLOUDY    67  39  35 S22G32    29.87R
WEST PLAINS    MOSUNNY   61  50  67 S7        30.04S
ROLLA          SUNNY     63  49  60 S13       29.96S
BRANSON        MOCLDY    64  48  55 SE14G21   29.96F

......SURROUNDING SGF CWA......

CITY           SKY/WX    TMP DP  RH WIND       PRES   REMARKS
CHANUTE        CLOUDY    66  44  45 S21G30    29.81R
PARSONS        CLOUDY    67  46  47 S21G30    29.83R
COFFEYVILLE    CLOUDY    67  48  50 S22G33    29.82S
EMPORIA        CLOUDY    66  45  46 S25G32    29.74R
HARRISON AR    MOCLDY    65  49  56 S15G29    29.97F

......KANSAS AND MISSOURI......

CITY           SKY/WX    TMP DP  RH WIND       PRES   REMARKS
KANSAS CTY INT CLOUDY    68  42  38 S22G30    29.81R
SEDALIA        PTCLDY    65  47  52 S14       29.88R
ST JOSEPH      CLOUDY    68  47  46 S14       29.79R
ST LOUIS       MOSUNNY   60  51  72 CALM      30.01F
WICHITA        PTCLDY    64  49  57 S18       29.71R
TOPEKA         CLOUDY    67  44  43 S12       29.76R
OLATHE         CLOUDY    66  42  41 S20G32    29.79S

......TENNESSEE......

CITY           SKY/WX    TMP DP  RH WIND       PRES   REMARKS
MEMPHIS        NOT AVBL
NASHVILLE      PTSUNNY   62  49  62 S17       30.26R

......ARKANSAS.......

CITY           SKY/WX    TMP DP  RH WIND       PRES   REMARKS
FAYETTEVILLE   CLOUDY    64  46  52 S22G30    29.93R
FT SMITH       MOCLDY    68  49  50 S16       29.97R
LITTLE ROCK    CLOUDY    66  61  84 S7        30.09R

......OKLAHOMA.......

CITY           SKY/WX    TMP DP  RH WIND       PRES   REMARKS
TULSA          CLOUDY    67  52  58 S21G30    29.82S
PONCA CITY     CLOUDY    67  51  56 S15G22    29.75R
MCALESTER      CLOUDY    66  55  67 S16G30    29.87R
OKLAHOMA CITY  MOCLDY    64  55  72 S20G25    29.78R

......IOWA............

CITY           SKY/WX    TMP DP  RH WIND       PRES   REMARKS
DES MOINES     NOT AVBL
QUAD CITIES    CLOUDY    57  46  66 S15G22    29.86R

......ILLINOIS........

CITY           SKY/WX    TMP DP  RH WIND       PRES   REMARKS
QUINCY         NOT AVBL
CHICAGO        CLOUDY    55  45  68 S15       29.91S




USA.gov is the U.S. government's official web portal to all federal, state and local government web resources and services.